NOS2875 HEMA-LIRF

Flight info

Callsign NOS2875
Flight time 4h 4m
Altitude 36000
Route MAK V730 MEMPO L300 LXR P751 METRU DCT RUTOM DCT LUNAR DCT TEA DCT SIPRO DCT LAT
Aircraft B38M/M-SDE1FGHILORVWXY/HB1

Departure

Time 2026-05-05 12:14
Airport Marsa Alam International Airport (HEMA)

Arrival

Time 2026-05-05 16:18
Airport Rome–Fiumicino Leonardo da Vinci International Airport (LIRF)
Time Latitude Longitude Altitude Speed Heading
2026-05-05 11:46 25.55511 34.59063 241 ft 0 kts 60°
2026-05-05 12:05 25.55508 34.59056 241 ft 4 kts 60°
2026-05-05 12:05 25.55496 34.59031 241 ft 4 kts 66°
2026-05-05 12:05 25.55488 34.59007 241 ft 3 kts 82°
2026-05-05 12:05 25.55488 34.58992 241 ft 2 kts 111°
2026-05-05 12:06 25.55494 34.58981 241 ft 2 kts 136°
2026-05-05 12:06 25.55503 34.58973 241 ft 2 kts 147°
2026-05-05 12:06 25.55512 34.58967 241 ft 2 kts 149°
2026-05-05 12:06 25.55513 34.58966 241 ft 0 kts 149°
2026-05-05 12:07 25.55507 34.58970 241 ft 4 kts 150°
2026-05-05 12:08 25.55469 34.58994 241 ft 7 kts 150°
2026-05-05 12:08 25.55428 34.59021 241 ft 7 kts 149°
2026-05-05 12:08 25.55387 34.59048 241 ft 7 kts 150°
2026-05-05 12:08 25.55345 34.59074 241 ft 7 kts 150°
2026-05-05 12:09 25.55306 34.59099 241 ft 7 kts 149°
2026-05-05 12:09 25.55267 34.59124 241 ft 6 kts 151°
2026-05-05 12:09 25.55224 34.59130 241 ft 6 kts 195°
2026-05-05 12:09 25.55191 34.59101 242 ft 6 kts 231°
2026-05-05 12:10 25.55168 34.59061 245 ft 6 kts 240°
2026-05-05 12:10 25.55146 34.59023 251 ft 6 kts 229°
2026-05-05 12:10 25.55109 34.59005 253 ft 6 kts 180°
2026-05-05 12:10 25.55060 34.59026 253 ft 10 kts 151°
2026-05-05 12:11 25.54993 34.59069 254 ft 13 kts 150°
2026-05-05 12:11 25.54909 34.59122 253 ft 15 kts 149°
2026-05-05 12:11 25.54813 34.59185 250 ft 17 kts 150°
2026-05-05 12:11 25.54724 34.59241 248 ft 12 kts 150°
2026-05-05 12:12 25.54650 34.59260 248 ft 11 kts 200°
2026-05-05 12:12 25.54615 34.59219 250 ft 2 kts 238°
2026-05-05 12:12 25.54614 34.59218 250 ft 0 kts 238°
2026-05-05 12:13 25.54606 34.59203 251 ft 3 kts 239°
2026-05-05 12:13 25.54596 34.59185 252 ft 3 kts 239°
2026-05-05 12:13 25.54585 34.59161 252 ft 5 kts 245°
2026-05-05 12:13 25.54586 34.59114 253 ft 9 kts 296°
2026-05-05 12:14 25.54711 34.59022 256 ft 47 kts 330°
2026-05-05 12:14 25.55202 34.58707 254 ft 114 kts 330°
2026-05-05 12:14 25.56045 34.58180 388 ft 154 kts 334°
2026-05-05 12:14 25.56973 34.57604 1127 ft 156 kts 335°
2026-05-05 12:15 25.57947 34.57000 1792 ft 163 kts 332°
2026-05-05 12:15 25.58951 34.56336 2365 ft 172 kts 328°
2026-05-05 12:15 25.59984 34.55639 2822 ft 181 kts 326°
2026-05-05 12:15 25.61104 34.54898 3175 ft 191 kts 327°
2026-05-05 12:16 25.62303 34.54105 3340 ft 210 kts 327°
2026-05-05 12:16 25.63602 34.53257 3518 ft 225 kts 326°
2026-05-05 12:16 25.64974 34.52369 3913 ft 237 kts 326°
2026-05-05 12:16 25.66455 34.51390 4231 ft 254 kts 321°
2026-05-05 12:17 25.67534 34.49885 4866 ft 252 kts 287°
2026-05-05 12:17 25.67684 34.47972 5622 ft 252 kts 264°
2026-05-05 12:17 25.67165 34.46112 6305 ft 258 kts 244°
2026-05-05 12:17 25.66229 34.44394 6922 ft 261 kts 240°
2026-05-05 12:18 25.65240 34.42719 7680 ft 258 kts 240°
2026-05-05 12:18 25.64238 34.41039 8205 ft 265 kts 240°
2026-05-05 12:18 25.63231 34.39345 8972 ft 262 kts 240°
2026-05-05 12:18 25.62235 34.37661 9675 ft 262 kts 240°
2026-05-05 12:19 25.61560 34.36515 10071 ft 263 kts 240°
2026-05-05 12:19 25.60539 34.34773 10334 ft 279 kts 240°
2026-05-05 12:19 25.59449 34.32911 10486 ft 296 kts 240°
2026-05-05 12:19 25.58457 34.30853 10560 ft 312 kts 254°
2026-05-05 12:20 25.58203 34.28426 10696 ft 327 kts 272°
2026-05-05 12:20 25.58435 34.25862 10811 ft 342 kts 275°
2026-05-05 12:20 25.58748 34.23205 10979 ft 354 kts 276°
2026-05-05 12:20 25.59087 34.20479 11245 ft 361 kts 277°
2026-05-05 12:21 25.59432 34.17706 11585 ft 365 kts 276°
2026-05-05 12:21 25.59770 34.14920 12094 ft 365 kts 276°
2026-05-05 12:21 25.60103 34.12128 12591 ft 365 kts 276°
2026-05-05 12:21 25.60434 34.09312 12924 ft 371 kts 276°
2026-05-05 12:22 25.60763 34.06469 13425 ft 372 kts 275°
2026-05-05 12:22 25.61089 34.03624 13928 ft 373 kts 275°
2026-05-05 12:22 25.61414 34.00774 14349 ft 375 kts 275°
2026-05-05 12:22 25.61741 33.97893 14717 ft 379 kts 275°
2026-05-05 12:23 25.62068 33.94987 15151 ft 381 kts 276°
2026-05-05 12:23 25.62397 33.92066 15587 ft 383 kts 276°
2026-05-05 12:23 25.62726 33.89134 16044 ft 384 kts 276°
2026-05-05 12:23 25.63057 33.86188 16454 ft 387 kts 276°
2026-05-05 12:24 25.63385 33.83261 16832 ft 389 kts 276°
2026-05-05 12:24 25.63719 33.80273 17226 ft 392 kts 276°
2026-05-05 12:24 25.64055 33.77266 17636 ft 394 kts 276°
2026-05-05 12:24 25.64391 33.74249 18039 ft 396 kts 275°
2026-05-05 12:25 25.64729 33.71209 18409 ft 399 kts 276°
2026-05-05 12:25 25.65069 33.68153 18767 ft 400 kts 276°
2026-05-05 12:25 25.65409 33.65091 19141 ft 400 kts 276°
2026-05-05 12:25 25.65749 33.62021 19486 ft 402 kts 276°
2026-05-05 12:26 25.66089 33.58930 19774 ft 406 kts 276°
2026-05-05 12:26 25.66432 33.55818 20095 ft 407 kts 276°
2026-05-05 12:26 25.66776 33.52697 20456 ft 408 kts 276°
2026-05-05 12:26 25.67119 33.49575 20795 ft 410 kts 276°
2026-05-05 12:27 25.67463 33.46426 21109 ft 412 kts 276°
2026-05-05 12:27 25.67808 33.43266 21410 ft 414 kts 276°
2026-05-05 12:27 25.68154 33.40097 21716 ft 416 kts 276°
2026-05-05 12:27 25.68501 33.36909 22022 ft 417 kts 276°
2026-05-05 12:28 25.68849 33.33707 22317 ft 419 kts 276°
2026-05-05 12:28 25.69197 33.30492 22605 ft 421 kts 276°
2026-05-05 12:28 25.69547 33.27263 22887 ft 423 kts 276°
2026-05-05 12:28 25.69897 33.24019 23159 ft 425 kts 276°
2026-05-05 12:29 25.70248 33.20762 23442 ft 426 kts 275°
2026-05-05 12:29 25.70599 33.17493 23691 ft 428 kts 276°
2026-05-05 12:29 25.70951 33.14214 23934 ft 429 kts 276°
2026-05-05 12:29 25.71302 33.10929 24186 ft 429 kts 275°
2026-05-05 12:30 25.71653 33.07646 24432 ft 430 kts 275°
2026-05-05 12:30 25.72004 33.04348 24662 ft 431 kts 275°
2026-05-05 12:30 25.72356 33.01041 24878 ft 432 kts 275°
2026-05-05 12:30 25.72709 32.97715 25083 ft 434 kts 275°
2026-05-05 12:31 25.73060 32.94394 25294 ft 435 kts 275°
2026-05-05 12:31 25.73413 32.91060 25528 ft 436 kts 275°
2026-05-05 12:31 25.73765 32.87720 25753 ft 437 kts 275°
2026-05-05 12:31 25.74118 32.84369 25941 ft 438 kts 275°
2026-05-05 12:32 25.74566 32.81019 26140 ft 441 kts 281°
2026-05-05 12:32 25.75528 32.77781 26373 ft 444 kts 290°
2026-05-05 12:32 25.76869 32.74697 26731 ft 444 kts 296°
2026-05-05 12:32 25.78575 32.71837 27084 ft 447 kts 304°
2026-05-05 12:33 25.80555 32.69183 27411 ft 446 kts 306°
2026-05-05 12:33 25.82561 32.66554 27687 ft 446 kts 306°
2026-05-05 12:33 25.84570 32.63931 27979 ft 445 kts 306°
2026-05-05 12:33 25.86543 32.61345 28328 ft 444 kts 306°
2026-05-05 12:34 25.88529 32.58730 28738 ft 442 kts 305°
2026-05-05 12:34 25.90498 32.56121 29124 ft 440 kts 305°
2026-05-05 12:34 25.92476 32.53485 29452 ft 439 kts 305°
2026-05-05 12:34 25.94429 32.50875 29743 ft 439 kts 305°
2026-05-05 12:35 25.96378 32.48268 30085 ft 438 kts 304°
2026-05-05 12:35 25.98293 32.45704 30398 ft 436 kts 304°
2026-05-05 12:35 26.00229 32.43112 30671 ft 435 kts 304°
2026-05-05 12:35 26.02163 32.40520 30908 ft 435 kts 304°
2026-05-05 12:36 26.04096 32.37928 31170 ft 435 kts 304°
2026-05-05 12:36 26.06026 32.35340 31448 ft 434 kts 304°
2026-05-05 12:36 26.07951 32.32757 31731 ft 433 kts 304°
2026-05-05 12:36 26.09870 32.30181 32001 ft 432 kts 304°
2026-05-05 12:37 26.11785 32.27608 32259 ft 432 kts 304°
2026-05-05 12:37 26.13699 32.25035 32549 ft 431 kts 304°
2026-05-05 12:37 26.15604 32.22475 32883 ft 428 kts 304°
2026-05-05 12:37 26.17501 32.19923 33132 ft 428 kts 304°
2026-05-05 12:38 26.19394 32.17374 33354 ft 428 kts 304°
2026-05-05 12:38 26.21291 32.14818 33581 ft 428 kts 304°
2026-05-05 12:38 26.23184 32.12267 33851 ft 426 kts 304°
2026-05-05 12:38 26.25070 32.09723 34084 ft 426 kts 304°
2026-05-05 12:39 26.26955 32.07180 34259 ft 426 kts 304°
2026-05-05 12:39 26.28838 32.04636 34442 ft 425 kts 304°
2026-05-05 12:39 26.30717 32.02098 34646 ft 424 kts 304°
2026-05-05 12:39 26.32594 31.99561 34817 ft 424 kts 304°
2026-05-05 12:40 26.34471 31.97022 34970 ft 424 kts 304°
2026-05-05 12:40 26.36347 31.94482 35155 ft 424 kts 303°
2026-05-05 12:40 26.38220 31.91947 35353 ft 423 kts 303°
2026-05-05 12:40 26.40088 31.89418 35541 ft 422 kts 303°
2026-05-05 12:41 26.41953 31.86891 35683 ft 422 kts 303°
2026-05-05 12:41 26.43814 31.84366 35830 ft 422 kts 303°
2026-05-05 12:41 26.45678 31.81836 35978 ft 422 kts 303°
2026-05-05 12:41 26.47546 31.79298 35998 ft 424 kts 303°
2026-05-05 12:42 26.51283 31.74220 35999 ft 421 kts 303°
2026-05-05 12:42 26.54963 31.69218 36013 ft 418 kts 303°
2026-05-05 12:43 26.58629 31.64226 36011 ft 414 kts 303°
2026-05-05 12:43 26.62271 31.59260 36032 ft 412 kts 303°
2026-05-05 12:44 26.65903 31.54300 36053 ft 414 kts 303°
2026-05-05 12:44 26.69571 31.49282 36073 ft 419 kts 303°
2026-05-05 12:45 26.73281 31.44205 36071 ft 423 kts 303°
2026-05-05 12:45 26.77013 31.39095 36078 ft 425 kts 303°
2026-05-05 12:46 26.80761 31.33959 36075 ft 426 kts 303°
2026-05-05 12:46 26.83901 31.29649 36104 ft 426 kts 303°
2026-05-05 12:47 26.87639 31.24514 36104 ft 425 kts 303°
2026-05-05 12:47 26.91358 31.19399 36113 ft 423 kts 303°
2026-05-05 12:48 26.95064 31.14293 36119 ft 421 kts 303°
2026-05-05 12:48 26.98752 31.09207 36128 ft 419 kts 303°
2026-05-05 12:49 27.02464 31.04170 36123 ft 421 kts 308°
2026-05-05 12:49 27.06998 30.99988 36140 ft 428 kts 318°
2026-05-05 12:50 27.11884 30.96164 36134 ft 428 kts 318°
2026-05-05 12:50 27.16755 30.92334 36118 ft 427 kts 318°
2026-05-05 12:51 27.21603 30.88488 36127 ft 427 kts 318°
2026-05-05 12:51 27.26450 30.84625 36139 ft 427 kts 318°
2026-05-05 12:52 27.31300 30.80752 36130 ft 427 kts 318°
2026-05-05 12:52 27.36149 30.76876 36122 ft 428 kts 318°
2026-05-05 12:53 27.40996 30.72997 36126 ft 427 kts 318°
2026-05-05 12:53 27.45842 30.69116 36128 ft 427 kts 318°
2026-05-05 12:54 27.53106 30.63290 36121 ft 428 kts 318°
2026-05-05 12:55 27.57950 30.59399 36147 ft 427 kts 318°
2026-05-05 12:55 27.62796 30.55502 36133 ft 427 kts 318°
2026-05-05 12:56 27.67607 30.51630 36119 ft 427 kts 318°
2026-05-05 12:56 27.72470 30.47712 36131 ft 427 kts 318°
2026-05-05 12:57 27.77270 30.43839 36120 ft 427 kts 318°
2026-05-05 12:57 27.82096 30.39942 36122 ft 426 kts 318°
2026-05-05 12:58 27.86916 30.36044 36117 ft 426 kts 318°
2026-05-05 12:58 27.91734 30.32144 36128 ft 426 kts 318°
2026-05-05 12:59 27.96545 30.28246 36124 ft 425 kts 318°
2026-05-05 12:59 28.01354 30.24344 36115 ft 425 kts 318°
2026-05-05 13:00 28.08554 30.18496 36117 ft 424 kts 318°
2026-05-05 13:01 28.18127 30.10702 36115 ft 423 kts 318°
2026-05-05 13:01 28.22904 30.06808 36138 ft 423 kts 318°
2026-05-05 13:02 28.27687 30.02903 36113 ft 423 kts 318°
2026-05-05 13:02 28.32466 29.98997 36103 ft 423 kts 318°
2026-05-05 13:03 28.37242 29.95090 36103 ft 423 kts 318°
2026-05-05 13:03 28.42009 29.91185 36100 ft 422 kts 318°
2026-05-05 13:04 28.46775 29.87278 36098 ft 422 kts 318°
2026-05-05 13:04 28.51536 29.83369 36099 ft 422 kts 317°
2026-05-05 13:05 28.56297 29.79456 36097 ft 422 kts 318°
2026-05-05 13:05 28.61051 29.75544 36099 ft 422 kts 318°
2026-05-05 13:06 28.65806 29.71627 36095 ft 422 kts 318°
2026-05-05 13:06 28.70554 29.67712 36094 ft 421 kts 318°
2026-05-05 13:07 28.75296 29.63796 36088 ft 421 kts 318°
2026-05-05 13:07 28.80034 29.59880 36088 ft 420 kts 317°
2026-05-05 13:08 28.84766 29.55964 36088 ft 420 kts 317°
2026-05-05 13:08 28.89492 29.52047 36103 ft 420 kts 318°
2026-05-05 13:09 28.94223 29.48123 36091 ft 420 kts 317°
2026-05-05 13:09 28.98949 29.44198 36085 ft 420 kts 317°
2026-05-05 13:10 29.03669 29.40274 36079 ft 419 kts 317°
2026-05-05 13:10 29.08383 29.36350 36086 ft 419 kts 317°
2026-05-05 13:11 29.13087 29.32426 36082 ft 419 kts 317°
2026-05-05 13:11 29.17711 29.28459 36110 ft 418 kts 317°
2026-05-05 13:12 29.22382 29.24410 36096 ft 418 kts 317°
2026-05-05 13:12 29.26988 29.20425 36092 ft 418 kts 317°
2026-05-05 13:13 29.31636 29.16406 36087 ft 418 kts 317°
2026-05-05 13:13 29.36276 29.12390 36090 ft 418 kts 317°
2026-05-05 13:14 29.40919 29.08367 36092 ft 418 kts 317°
2026-05-05 13:14 29.45554 29.04332 36095 ft 418 kts 317°
2026-05-05 13:15 29.50182 29.00282 36125 ft 418 kts 317°
2026-05-05 13:15 29.54807 28.96227 36106 ft 419 kts 317°
2026-05-05 13:16 29.59436 28.92167 36096 ft 418 kts 317°
2026-05-05 13:16 29.64061 28.88106 36090 ft 418 kts 317°
2026-05-05 13:17 29.68680 28.84047 36088 ft 417 kts 317°
2026-05-05 13:17 29.73291 28.79989 36090 ft 417 kts 317°
2026-05-05 13:18 29.77890 28.75937 36092 ft 417 kts 317°
2026-05-05 13:18 29.82490 28.71878 36115 ft 416 kts 317°
2026-05-05 13:19 29.87087 28.67819 36102 ft 416 kts 317°
2026-05-05 13:19 29.91643 28.63790 36087 ft 415 kts 317°
2026-05-05 13:20 29.96217 28.59741 36085 ft 414 kts 317°
2026-05-05 13:20 30.00777 28.55699 36081 ft 413 kts 317°
2026-05-05 13:21 30.05335 28.51654 36088 ft 413 kts 317°
2026-05-05 13:21 30.09887 28.47610 36106 ft 413 kts 317°
2026-05-05 13:22 30.14436 28.43563 36090 ft 413 kts 317°
2026-05-05 13:22 30.18981 28.39515 36107 ft 413 kts 317°
2026-05-05 13:23 30.23535 28.35455 36104 ft 414 kts 317°
2026-05-05 13:23 30.28094 28.31384 36109 ft 414 kts 317°
2026-05-05 13:24 30.32660 28.27303 36099 ft 415 kts 317°
2026-05-05 13:24 30.37230 28.23213 36098 ft 415 kts 317°
2026-05-05 13:25 30.41798 28.19121 36105 ft 416 kts 317°
2026-05-05 13:25 30.46376 28.15013 36101 ft 417 kts 317°
2026-05-05 13:26 30.50956 28.10900 36101 ft 416 kts 317°
2026-05-05 13:26 30.55527 28.06791 36107 ft 415 kts 317°
2026-05-05 13:27 30.60088 28.02685 36108 ft 414 kts 317°
2026-05-05 13:27 30.64606 27.98611 36112 ft 413 kts 317°
2026-05-05 13:28 30.69141 27.94518 36112 ft 413 kts 317°
2026-05-05 13:28 30.73672 27.90424 36116 ft 412 kts 317°
2026-05-05 13:29 30.78196 27.86330 36124 ft 412 kts 317°
2026-05-05 13:29 30.82717 27.82234 36127 ft 412 kts 317°
2026-05-05 13:30 30.87226 27.78144 36119 ft 411 kts 317°
2026-05-05 13:30 30.91732 27.74053 36121 ft 410 kts 317°
2026-05-05 13:31 30.96231 27.69962 36131 ft 410 kts 317°
2026-05-05 13:31 31.00725 27.65870 36131 ft 410 kts 317°
2026-05-05 13:32 31.05216 27.61775 36128 ft 410 kts 317°
2026-05-05 13:32 31.09709 27.57675 36144 ft 410 kts 317°
2026-05-05 13:33 31.13285 27.54085 36131 ft 406 kts 309°
2026-05-05 13:33 31.16622 27.48858 36150 ft 401 kts 301°
2026-05-05 13:34 31.19723 27.43439 36142 ft 401 kts 301°
2026-05-05 13:34 31.22848 27.38030 36152 ft 402 kts 301°
2026-05-05 13:35 31.25977 27.32625 36155 ft 402 kts 301°
2026-05-05 13:35 31.29113 27.27205 36158 ft 403 kts 301°
2026-05-05 13:36 31.32684 27.22136 36163 ft 408 kts 313°
2026-05-05 13:36 31.37284 27.18153 36148 ft 415 kts 322°
2026-05-05 13:37 31.42171 27.14547 36137 ft 415 kts 322°
2026-05-05 13:37 31.47049 27.10937 36142 ft 415 kts 322°
2026-05-05 13:38 31.51913 27.07309 36129 ft 414 kts 322°
2026-05-05 13:38 31.56760 27.03677 36132 ft 413 kts 322°
2026-05-05 13:39 31.61560 27.00072 36126 ft 412 kts 322°
2026-05-05 13:39 31.66380 26.96447 36130 ft 411 kts 322°
2026-05-05 13:40 31.71186 26.92827 36130 ft 410 kts 322°
2026-05-05 13:40 31.75986 26.89208 36124 ft 410 kts 322°
2026-05-05 13:41 31.80779 26.85589 36122 ft 409 kts 322°
2026-05-05 13:41 31.85563 26.81974 36116 ft 408 kts 322°
2026-05-05 13:42 31.90333 26.78364 36119 ft 408 kts 322°
2026-05-05 13:42 31.95099 26.74752 36122 ft 407 kts 322°
2026-05-05 13:43 31.99856 26.71144 36118 ft 407 kts 322°
2026-05-05 13:43 32.04615 26.67528 36128 ft 407 kts 322°
2026-05-05 13:44 32.09378 26.63905 36121 ft 407 kts 322°
2026-05-05 13:44 32.14143 26.60277 36118 ft 408 kts 322°
2026-05-05 13:45 32.18906 26.56645 36117 ft 408 kts 322°
2026-05-05 13:45 32.23668 26.53009 36113 ft 407 kts 322°
2026-05-05 13:46 32.28424 26.49374 36117 ft 408 kts 322°
2026-05-05 13:46 32.33185 26.45729 36145 ft 408 kts 323°
2026-05-05 13:47 32.37948 26.42080 36128 ft 408 kts 323°
2026-05-05 13:47 32.42705 26.38429 36117 ft 407 kts 323°
2026-05-05 13:48 32.47455 26.34780 36111 ft 407 kts 323°
2026-05-05 13:48 32.52193 26.31135 36115 ft 406 kts 323°
2026-05-05 13:49 32.56930 26.27486 36113 ft 406 kts 323°
2026-05-05 13:49 32.61658 26.23840 36127 ft 405 kts 323°
2026-05-05 13:50 32.66355 26.20212 36117 ft 406 kts 323°
2026-05-05 13:50 32.71085 26.16555 36113 ft 406 kts 323°
2026-05-05 13:51 32.75815 26.12893 36112 ft 406 kts 323°
2026-05-05 13:51 32.80543 26.09227 36110 ft 406 kts 323°
2026-05-05 13:52 32.85276 26.05553 36109 ft 406 kts 323°
2026-05-05 13:52 32.90013 26.01871 36110 ft 407 kts 323°
2026-05-05 13:53 32.94758 25.98179 36116 ft 408 kts 323°
2026-05-05 13:53 32.99503 25.94481 36105 ft 408 kts 323°
2026-05-05 13:54 33.04256 25.90772 36107 ft 408 kts 323°
2026-05-05 13:54 33.09011 25.87057 36105 ft 409 kts 323°
2026-05-05 13:55 33.13768 25.83335 36109 ft 409 kts 323°
2026-05-05 13:55 33.18527 25.79607 36107 ft 409 kts 323°
2026-05-05 13:56 33.23281 25.75879 36106 ft 409 kts 323°
2026-05-05 13:56 33.28038 25.72142 36104 ft 409 kts 323°
2026-05-05 13:57 33.32792 25.68403 36104 ft 409 kts 323°
2026-05-05 13:57 33.37514 25.64684 36103 ft 409 kts 323°
2026-05-05 13:58 33.42260 25.60942 36106 ft 409 kts 323°
2026-05-05 13:58 33.47005 25.57195 36105 ft 408 kts 323°
2026-05-05 13:59 33.54120 25.51567 36110 ft 408 kts 324°
2026-05-05 14:00 33.60458 25.46546 36105 ft 408 kts 323°
2026-05-05 14:00 33.65955 25.42182 36105 ft 407 kts 323°
2026-05-05 14:01 33.70676 25.38428 36100 ft 407 kts 323°
2026-05-05 14:01 33.75397 25.34671 36104 ft 407 kts 323°
2026-05-05 14:02 33.80113 25.30911 36111 ft 407 kts 324°
2026-05-05 14:02 33.84825 25.27150 36105 ft 407 kts 324°
2026-05-05 14:03 33.89541 25.23380 36102 ft 407 kts 324°
2026-05-05 14:03 33.94252 25.19610 36099 ft 406 kts 324°
2026-05-05 14:04 33.98950 25.15830 36104 ft 406 kts 322°
2026-05-05 14:04 34.03085 25.11260 36113 ft 403 kts 313°
2026-05-05 14:05 34.06940 25.06402 36110 ft 403 kts 313°
2026-05-05 14:05 34.10830 25.01520 36110 ft 404 kts 313°
2026-05-05 14:06 34.14735 24.96632 36102 ft 404 kts 313°
2026-05-05 14:06 34.18643 24.91740 36099 ft 405 kts 313°
2026-05-05 14:07 34.22554 24.86839 36102 ft 405 kts 313°
2026-05-05 14:07 34.26464 24.81934 36096 ft 406 kts 313°
2026-05-05 14:08 34.30375 24.77019 36107 ft 406 kts 313°
2026-05-05 14:08 34.34289 24.72093 36100 ft 406 kts 313°
2026-05-05 14:09 34.38203 24.67161 36097 ft 406 kts 313°
2026-05-05 14:09 34.42115 24.62223 36112 ft 406 kts 313°
2026-05-05 14:10 34.46027 24.57279 36098 ft 406 kts 313°
2026-05-05 14:10 34.49928 24.52340 36106 ft 406 kts 313°
2026-05-05 14:11 34.53830 24.47395 36105 ft 405 kts 313°
2026-05-05 14:11 34.57700 24.42482 36093 ft 405 kts 313°
2026-05-05 14:12 34.61617 24.37503 36084 ft 405 kts 313°
2026-05-05 14:12 34.65496 24.32563 36093 ft 404 kts 313°
2026-05-05 14:13 34.69351 24.27649 36102 ft 404 kts 313°
2026-05-05 14:13 34.73231 24.22695 36114 ft 405 kts 313°
2026-05-05 14:14 34.77113 24.17731 36114 ft 405 kts 313°
2026-05-05 14:14 34.80996 24.12758 36111 ft 405 kts 313°
2026-05-05 14:15 34.84879 24.07779 36108 ft 405 kts 313°
2026-05-05 14:15 34.88758 24.02797 36095 ft 405 kts 313°
2026-05-05 14:16 34.92638 23.97807 36101 ft 406 kts 313°
2026-05-05 14:16 34.96519 23.92808 36102 ft 406 kts 313°
2026-05-05 14:17 35.00396 23.87806 36101 ft 406 kts 313°
2026-05-05 14:17 35.04278 23.82791 36115 ft 406 kts 313°
2026-05-05 14:18 35.08163 23.77765 36105 ft 407 kts 313°
2026-05-05 14:18 35.12044 23.72736 36109 ft 406 kts 313°
2026-05-05 14:19 35.15917 23.67711 36111 ft 406 kts 313°
2026-05-05 14:19 35.19789 23.62678 36113 ft 406 kts 313°
2026-05-05 14:20 35.23659 23.57641 36111 ft 406 kts 313°
2026-05-05 14:20 35.27527 23.52599 36115 ft 406 kts 313°
2026-05-05 14:21 35.31367 23.47587 36119 ft 406 kts 313°
2026-05-05 14:21 35.35253 23.42506 36107 ft 406 kts 313°
2026-05-05 14:22 35.39088 23.37484 36125 ft 406 kts 313°
2026-05-05 14:22 35.42948 23.32423 36124 ft 406 kts 313°
2026-05-05 14:23 35.46805 23.27357 36117 ft 406 kts 313°
2026-05-05 14:23 35.50006 23.23148 36117 ft 406 kts 313°
2026-05-05 14:24 35.53857 23.18076 36110 ft 406 kts 313°
2026-05-05 14:24 35.57705 23.13001 36115 ft 406 kts 313°
2026-05-05 14:25 35.61551 23.07921 36119 ft 406 kts 313°
2026-05-05 14:25 35.65387 23.02846 36116 ft 405 kts 313°
2026-05-05 14:26 35.69225 22.97761 36129 ft 405 kts 313°
2026-05-05 14:26 35.73063 22.92668 36117 ft 406 kts 313°
2026-05-05 14:27 35.76899 22.87570 36108 ft 406 kts 313°
2026-05-05 14:27 35.80732 22.82468 36108 ft 406 kts 313°
2026-05-05 14:28 35.84558 22.77369 36106 ft 405 kts 312°
2026-05-05 14:28 35.88357 22.72297 36108 ft 405 kts 312°
2026-05-05 14:29 35.92176 22.67190 36115 ft 405 kts 312°
2026-05-05 14:29 35.95992 22.62080 36116 ft 405 kts 312°
2026-05-05 14:30 35.99802 22.56970 36133 ft 405 kts 312°
2026-05-05 14:30 36.03615 22.51848 36123 ft 405 kts 312°
2026-05-05 14:31 36.07427 22.46719 36122 ft 405 kts 312°
2026-05-05 14:31 36.11235 22.41589 36109 ft 404 kts 312°
2026-05-05 14:32 36.15035 22.36460 36115 ft 404 kts 312°
2026-05-05 14:32 36.18831 22.31331 36119 ft 404 kts 312°
2026-05-05 14:33 36.22617 22.26205 36114 ft 404 kts 312°
2026-05-05 14:33 36.26404 22.21071 36114 ft 403 kts 312°
2026-05-05 14:34 36.30187 22.15934 36119 ft 403 kts 312°
2026-05-05 14:34 36.33970 22.10790 36107 ft 403 kts 312°
2026-05-05 14:35 36.37745 22.05647 36118 ft 403 kts 312°
2026-05-05 14:35 36.41514 22.00506 36120 ft 403 kts 312°
2026-05-05 14:36 36.45287 21.95351 36118 ft 403 kts 312°
2026-05-05 14:36 36.49059 21.90188 36123 ft 404 kts 312°
2026-05-05 14:37 36.52833 21.85015 36121 ft 404 kts 311°
2026-05-05 14:37 36.56603 21.79840 36124 ft 404 kts 311°
2026-05-05 14:38 36.60375 21.74654 36122 ft 404 kts 311°
2026-05-05 14:38 36.64149 21.69457 36128 ft 405 kts 311°
2026-05-05 14:39 36.67927 21.64247 36122 ft 405 kts 311°
2026-05-05 14:39 36.71678 21.59065 36122 ft 405 kts 311°
2026-05-05 14:40 36.75453 21.53841 36120 ft 405 kts 311°
2026-05-05 14:40 36.79223 21.48617 36128 ft 405 kts 311°
2026-05-05 14:41 36.82994 21.43383 36125 ft 405 kts 311°
2026-05-05 14:41 36.86763 21.38143 36128 ft 405 kts 311°
2026-05-05 14:42 36.90527 21.32901 36128 ft 405 kts 311°
2026-05-05 14:42 36.94288 21.27655 36136 ft 405 kts 311°
2026-05-05 14:43 36.98042 21.22412 36131 ft 405 kts 311°
2026-05-05 14:43 37.01796 21.17159 36130 ft 405 kts 311°
2026-05-05 14:44 37.05546 21.11904 36123 ft 404 kts 311°
2026-05-05 14:44 37.09290 21.06649 36134 ft 404 kts 311°
2026-05-05 14:45 37.13027 21.01395 36132 ft 404 kts 311°
2026-05-05 14:45 37.16768 20.96127 36131 ft 404 kts 311°
2026-05-05 14:46 37.20508 20.90851 36133 ft 405 kts 310°
2026-05-05 14:46 37.24224 20.85601 36143 ft 405 kts 311°
2026-05-05 14:47 37.27985 20.80279 36126 ft 405 kts 311°
2026-05-05 14:47 37.31701 20.75012 36131 ft 405 kts 311°
2026-05-05 14:48 37.35440 20.69705 36132 ft 405 kts 311°
2026-05-05 14:48 37.39175 20.64393 36131 ft 406 kts 311°
2026-05-05 14:49 37.42912 20.59070 36133 ft 406 kts 311°
2026-05-05 14:49 37.46648 20.53740 36133 ft 406 kts 311°
2026-05-05 14:50 37.50383 20.48404 36133 ft 406 kts 311°
2026-05-05 14:50 37.54116 20.43060 36148 ft 406 kts 311°
2026-05-05 14:51 37.57846 20.37713 36135 ft 407 kts 311°
2026-05-05 14:51 37.61582 20.32348 36133 ft 407 kts 311°
2026-05-05 14:52 37.65318 20.26974 36129 ft 407 kts 311°
2026-05-05 14:52 37.69053 20.21592 36130 ft 407 kts 311°
2026-05-05 14:53 37.72787 20.16203 36133 ft 408 kts 311°
2026-05-05 14:53 37.76515 20.10814 36122 ft 407 kts 310°
2026-05-05 14:54 37.80242 20.05418 36129 ft 407 kts 310°
2026-05-05 14:54 37.83964 20.00018 36130 ft 407 kts 310°
2026-05-05 14:55 37.87686 19.94611 36136 ft 407 kts 311°
2026-05-05 14:55 37.91405 19.89198 36133 ft 407 kts 310°
2026-05-05 14:56 37.95118 19.83786 36127 ft 407 kts 310°
2026-05-05 14:56 37.98830 19.78366 36113 ft 407 kts 310°
2026-05-05 14:57 38.02537 19.72943 36128 ft 406 kts 310°
2026-05-05 14:57 38.06234 19.67527 36132 ft 406 kts 310°
2026-05-05 14:58 38.09937 19.62092 36126 ft 406 kts 310°
2026-05-05 14:58 38.13630 19.56663 36125 ft 407 kts 310°
2026-05-05 14:59 38.17300 19.51258 36136 ft 407 kts 310°
2026-05-05 14:59 38.20993 19.45811 36115 ft 407 kts 310°
2026-05-05 15:00 38.24086 19.41242 36120 ft 406 kts 310°
2026-05-05 15:00 38.28368 19.34905 36126 ft 406 kts 310°
2026-05-05 15:01 38.32052 19.29442 36123 ft 407 kts 310°
2026-05-05 15:01 38.35738 19.23969 36116 ft 407 kts 310°
2026-05-05 15:02 38.39419 19.18491 36116 ft 407 kts 310°
2026-05-05 15:02 38.43105 19.12998 36116 ft 408 kts 310°
2026-05-05 15:03 38.46791 19.07495 36119 ft 408 kts 310°
2026-05-05 15:03 38.50479 19.01981 36113 ft 408 kts 310°
2026-05-05 15:04 38.54136 18.96427 36108 ft 408 kts 309°
2026-05-05 15:04 38.57723 18.90806 36106 ft 408 kts 309°
2026-05-05 15:05 38.63097 18.82352 36113 ft 408 kts 309°
2026-05-05 15:06 38.66659 18.76754 36091 ft 408 kts 308°
2026-05-05 15:06 38.70242 18.71121 36106 ft 408 kts 308°
2026-05-05 15:07 38.73828 18.65473 36119 ft 409 kts 308°
2026-05-05 15:07 38.77418 18.59809 36110 ft 410 kts 308°
2026-05-05 15:08 38.81013 18.54129 36099 ft 411 kts 308°
2026-05-05 15:08 38.84611 18.48433 36095 ft 411 kts 308°
2026-05-05 15:09 38.88206 18.42731 36095 ft 411 kts 308°
2026-05-05 15:09 38.91806 18.37011 36095 ft 412 kts 308°
2026-05-05 15:10 38.95406 18.31282 36098 ft 412 kts 308°
2026-05-05 15:10 38.99006 18.25541 36099 ft 413 kts 308°
2026-05-05 15:11 39.02608 18.19788 36098 ft 413 kts 308°
2026-05-05 15:11 39.06207 18.14028 36094 ft 413 kts 308°
2026-05-05 15:12 39.09194 18.09240 36087 ft 413 kts 308°
2026-05-05 15:12 39.12788 18.03469 36088 ft 412 kts 308°
2026-05-05 15:13 39.16950 17.96774 36083 ft 411 kts 308°
2026-05-05 15:13 39.20518 17.91023 36094 ft 411 kts 308°
2026-05-05 15:14 39.23505 17.86199 36087 ft 410 kts 308°
2026-05-05 15:14 39.27063 17.80446 36089 ft 410 kts 307°
2026-05-05 15:15 39.30614 17.74693 36079 ft 409 kts 307°
2026-05-05 15:15 39.34156 17.68944 36073 ft 409 kts 307°
2026-05-05 15:16 39.37698 17.63183 36074 ft 409 kts 307°
2026-05-05 15:16 39.41242 17.57411 36068 ft 410 kts 307°
2026-05-05 15:17 39.44764 17.51663 36068 ft 411 kts 307°
2026-05-05 15:17 39.48335 17.45824 36059 ft 411 kts 307°
2026-05-05 15:18 39.51857 17.40055 36063 ft 412 kts 307°
2026-05-05 15:18 39.55407 17.34230 36066 ft 412 kts 307°
2026-05-05 15:19 39.58956 17.28395 36057 ft 412 kts 307°
2026-05-05 15:19 39.62498 17.22561 36059 ft 412 kts 307°
2026-05-05 15:20 39.66039 17.16717 36048 ft 411 kts 307°
2026-05-05 15:20 39.69571 17.10880 36046 ft 411 kts 307°
2026-05-05 15:21 39.73096 17.05041 36046 ft 410 kts 306°
2026-05-05 15:21 39.76616 16.99200 36054 ft 410 kts 306°
2026-05-05 15:22 39.80125 16.93367 36052 ft 410 kts 306°
2026-05-05 15:22 39.83633 16.87525 36049 ft 409 kts 306°
2026-05-05 15:23 39.87136 16.81680 36046 ft 409 kts 306°
2026-05-05 15:23 39.90634 16.75831 36060 ft 409 kts 306°
2026-05-05 15:24 39.94132 16.69973 36049 ft 410 kts 306°
2026-05-05 15:24 39.97625 16.64113 36049 ft 410 kts 306°
2026-05-05 15:25 40.01119 16.58239 36051 ft 410 kts 306°
2026-05-05 15:25 40.04589 16.52395 36062 ft 410 kts 306°
2026-05-05 15:26 40.08103 16.46467 36064 ft 411 kts 306°
2026-05-05 15:26 40.11575 16.40596 36085 ft 411 kts 306°
2026-05-05 15:27 40.15066 16.34685 36101 ft 411 kts 306°
2026-05-05 15:27 40.18559 16.28757 36070 ft 411 kts 306°
2026-05-05 15:28 40.22042 16.22837 36068 ft 410 kts 305°
2026-05-05 15:28 40.25509 16.16930 36073 ft 408 kts 305°
2026-05-05 15:29 40.28959 16.11042 36084 ft 407 kts 305°
2026-05-05 15:29 40.32402 16.05155 36091 ft 407 kts 305°
2026-05-05 15:30 40.35838 15.99270 36090 ft 406 kts 304°
2026-05-05 15:30 40.39264 15.93391 36089 ft 405 kts 304°
2026-05-05 15:31 40.42680 15.87517 36101 ft 404 kts 304°
2026-05-05 15:31 40.46086 15.81648 36089 ft 404 kts 304°
2026-05-05 15:32 40.49489 15.75774 36093 ft 404 kts 304°
2026-05-05 15:32 40.52890 15.69892 36084 ft 404 kts 304°
2026-05-05 15:33 40.56288 15.64005 36100 ft 404 kts 303°
2026-05-05 15:33 40.59681 15.58113 36094 ft 405 kts 303°
2026-05-05 15:34 40.63080 15.52201 36096 ft 405 kts 303°
2026-05-05 15:34 40.66482 15.46274 36084 ft 406 kts 303°
2026-05-05 15:35 40.69794 15.40277 36084 ft 403 kts 298°
2026-05-05 15:35 40.72543 15.33916 36093 ft 402 kts 296°
2026-05-05 15:36 40.75241 15.27466 36083 ft 402 kts 296°
2026-05-05 15:36 40.77960 15.21017 36081 ft 402 kts 296°
2026-05-05 15:37 40.80693 15.14576 36091 ft 403 kts 296°
2026-05-05 15:37 40.83438 15.08115 36104 ft 404 kts 296°
2026-05-05 15:38 40.86189 15.01628 36091 ft 406 kts 296°
2026-05-05 15:38 40.88947 14.95110 36089 ft 407 kts 296°
2026-05-05 15:39 40.91708 14.88571 36098 ft 407 kts 296°
2026-05-05 15:39 40.94469 14.82016 36096 ft 408 kts 296°
2026-05-05 15:40 40.97226 14.75459 36093 ft 408 kts 296°
2026-05-05 15:40 40.99979 14.68897 36090 ft 407 kts 296°
2026-05-05 15:41 41.02726 14.62333 36088 ft 408 kts 296°
2026-05-05 15:41 41.05471 14.55760 36090 ft 407 kts 296°
2026-05-05 15:42 41.08206 14.49198 36099 ft 407 kts 296°
2026-05-05 15:42 41.10940 14.42621 36093 ft 407 kts 296°
2026-05-05 15:43 41.13669 14.36043 36099 ft 407 kts 296°
2026-05-05 15:43 41.16374 14.29508 36092 ft 407 kts 296°
2026-05-05 15:44 41.19093 14.22926 36047 ft 407 kts 296°
2026-05-05 15:44 41.20464 14.19597 35535 ft 412 kts 296°
2026-05-05 15:44 41.21837 14.16262 34896 ft 412 kts 296°
2026-05-05 15:44 41.23213 14.12920 34262 ft 412 kts 296°
2026-05-05 15:45 41.24589 14.09572 33535 ft 413 kts 296°
2026-05-05 15:45 41.25964 14.06223 32787 ft 414 kts 296°
2026-05-05 15:45 41.27341 14.02867 32083 ft 414 kts 296°
2026-05-05 15:45 41.28718 13.99505 31350 ft 415 kts 296°
2026-05-05 15:46 41.30132 13.96156 30608 ft 417 kts 299°
2026-05-05 15:46 41.31732 13.92930 29888 ft 418 kts 301°
2026-05-05 15:46 41.33391 13.89774 29314 ft 414 kts 302°
2026-05-05 15:46 41.35041 13.86656 28758 ft 410 kts 302°
2026-05-05 15:47 41.36663 13.83563 28229 ft 405 kts 302°
2026-05-05 15:47 41.37719 13.81528 27857 ft 403 kts 302°
2026-05-05 15:47 41.39826 13.77433 27147 ft 399 kts 302°
2026-05-05 15:47 41.41386 13.74388 26615 ft 396 kts 302°
2026-05-05 15:48 41.42923 13.71352 26091 ft 393 kts 299°
2026-05-05 15:48 41.44159 13.68123 25573 ft 390 kts 291°
2026-05-05 15:48 41.45040 13.64722 25058 ft 387 kts 283°
2026-05-05 15:48 41.45550 13.61205 24541 ft 386 kts 279°
2026-05-05 15:49 41.45985 13.57674 24000 ft 386 kts 279°
2026-05-05 15:49 41.46413 13.54140 23425 ft 386 kts 279°
2026-05-05 15:49 41.46843 13.50611 22845 ft 385 kts 279°
2026-05-05 15:49 41.47276 13.47097 22307 ft 383 kts 278°
2026-05-05 15:50 41.47709 13.43605 21771 ft 382 kts 278°
2026-05-05 15:50 41.48144 13.40117 21243 ft 380 kts 278°
2026-05-05 15:50 41.48579 13.36644 20756 ft 379 kts 278°
2026-05-05 15:50 41.49011 13.33185 20249 ft 377 kts 278°
2026-05-05 15:51 41.49441 13.29738 19734 ft 376 kts 278°
2026-05-05 15:51 41.49863 13.26349 19238 ft 375 kts 278°
2026-05-05 15:51 41.50287 13.22924 18701 ft 374 kts 278°
2026-05-05 15:51 41.50711 13.19505 18146 ft 374 kts 278°
2026-05-05 15:52 41.51132 13.16091 17587 ft 372 kts 278°
2026-05-05 15:52 41.51550 13.12699 17061 ft 369 kts 278°
2026-05-05 15:52 41.51961 13.09359 16867 ft 358 kts 278°
2026-05-05 15:52 41.52356 13.06136 16710 ft 347 kts 278°
2026-05-05 15:53 41.52740 13.03001 16547 ft 337 kts 278°
2026-05-05 15:53 41.53112 12.99956 16417 ft 328 kts 278°
2026-05-05 15:53 41.53473 12.96990 16276 ft 320 kts 277°
2026-05-05 15:53 41.53833 12.94105 16139 ft 310 kts 281°
2026-05-05 15:54 41.54639 12.91487 16093 ft 305 kts 299°
2026-05-05 15:54 41.55990 12.89294 16074 ft 306 kts 312°
2026-05-05 15:54 41.57526 12.87386 16065 ft 296 kts 314°
2026-05-05 15:54 41.59025 12.85580 16056 ft 284 kts 314°
2026-05-05 15:55 41.60462 12.83841 16058 ft 273 kts 314°
2026-05-05 15:55 41.61829 12.82164 16048 ft 261 kts 313°
2026-05-05 15:55 41.63132 12.80551 16054 ft 250 kts 313°
2026-05-05 15:55 41.64387 12.78987 16063 ft 247 kts 313°
2026-05-05 15:56 41.65659 12.77395 16088 ft 255 kts 313°
2026-05-05 15:56 41.66973 12.75749 16089 ft 262 kts 313°
2026-05-05 15:56 41.68304 12.74082 16060 ft 261 kts 313°
2026-05-05 15:56 41.69625 12.72428 16025 ft 258 kts 313°
2026-05-05 15:57 41.70935 12.70786 15821 ft 258 kts 313°
2026-05-05 15:57 41.72251 12.69135 15442 ft 261 kts 313°
2026-05-05 15:57 41.73594 12.67452 14831 ft 272 kts 313°
2026-05-05 15:57 41.75039 12.65626 13935 ft 297 kts 313°
2026-05-05 15:58 41.76556 12.63717 13444 ft 301 kts 313°
2026-05-05 15:58 41.78075 12.61811 13169 ft 297 kts 313°
2026-05-05 15:58 41.79569 12.59934 12967 ft 293 kts 313°
2026-05-05 15:58 41.81042 12.58058 12769 ft 291 kts 312°
2026-05-05 15:59 41.82470 12.56142 12591 ft 289 kts 311°
2026-05-05 15:59 41.83885 12.54219 12415 ft 290 kts 311°
2026-05-05 15:59 41.85310 12.52286 12246 ft 293 kts 311°
2026-05-05 15:59 41.86748 12.50340 12065 ft 292 kts 311°
2026-05-05 16:00 41.88162 12.48430 11875 ft 286 kts 311°
2026-05-05 16:00 41.89582 12.46601 11688 ft 281 kts 320°
2026-05-05 16:00 41.91337 12.45476 11533 ft 280 kts 339°
2026-05-05 16:00 41.92561 12.44966 11428 ft 276 kts 339°
2026-05-05 16:01 41.94384 12.44229 11263 ft 272 kts 339°
2026-05-05 16:01 41.96185 12.43501 11115 ft 270 kts 339°
2026-05-05 16:01 41.98571 12.42526 10894 ft 271 kts 339°
2026-05-05 16:01 42.00378 12.41783 10732 ft 272 kts 339°
2026-05-05 16:02 42.01599 12.41278 10622 ft 273 kts 339°
2026-05-05 16:02 42.04010 12.40278 10406 ft 274 kts 339°
2026-05-05 16:02 42.05238 12.39768 10288 ft 274 kts 339°
2026-05-05 16:02 42.07063 12.39009 10123 ft 275 kts 339°
2026-05-05 16:03 42.08893 12.38246 9954 ft 275 kts 339°
2026-05-05 16:03 42.10707 12.37492 9744 ft 270 kts 338°
2026-05-05 16:03 42.12481 12.36752 9583 ft 264 kts 339°
2026-05-05 16:03 42.14223 12.36022 9408 ft 260 kts 338°
2026-05-05 16:04 42.15930 12.35306 9243 ft 254 kts 339°
2026-05-05 16:04 42.17606 12.34603 9089 ft 251 kts 338°
2026-05-05 16:04 42.19270 12.33902 8981 ft 250 kts 338°
2026-05-05 16:04 42.20924 12.33204 8879 ft 250 kts 338°
2026-05-05 16:05 42.22590 12.32501 8789 ft 252 kts 338°
2026-05-05 16:05 42.24276 12.31788 8689 ft 255 kts 339°
2026-05-05 16:05 42.25973 12.31071 8560 ft 256 kts 339°
2026-05-05 16:05 42.27671 12.30356 8463 ft 256 kts 339°
2026-05-05 16:06 42.29272 12.29402 8316 ft 246 kts 314°
2026-05-05 16:06 42.30143 12.27556 8083 ft 229 kts 277°
2026-05-05 16:06 42.30139 12.25514 8062 ft 210 kts 257°
2026-05-05 16:06 42.29678 12.23697 7837 ft 201 kts 242°
2026-05-05 16:07 42.28823 12.22224 7526 ft 199 kts 222°
2026-05-05 16:07 42.27747 12.21041 7158 ft 201 kts 220°
2026-05-05 16:07 42.26638 12.19833 6796 ft 206 kts 219°
2026-05-05 16:07 42.25529 12.18638 6651 ft 199 kts 220°
2026-05-05 16:08 42.24444 12.17474 6301 ft 201 kts 219°
2026-05-05 16:08 42.23312 12.16415 6174 ft 202 kts 201°
2026-05-05 16:08 42.21930 12.16320 6090 ft 203 kts 172°
2026-05-05 16:08 42.20504 12.16830 5633 ft 214 kts 165°
2026-05-05 16:09 42.19111 12.17436 5296 ft 208 kts 165°
2026-05-05 16:09 42.17785 12.18014 5040 ft 199 kts 165°
2026-05-05 16:09 42.16491 12.18570 4779 ft 191 kts 165°
2026-05-05 16:09 42.15235 12.19094 4532 ft 186 kts 172°
2026-05-05 16:10 42.13996 12.18933 4294 ft 179 kts 197°
2026-05-05 16:10 42.12785 12.18540 4112 ft 178 kts 194°
2026-05-05 16:10 42.11608 12.18193 3874 ft 169 kts 193°
2026-05-05 16:10 42.10484 12.17860 3657 ft 162 kts 193°
2026-05-05 16:11 42.09411 12.17539 3468 ft 156 kts 193°
2026-05-05 16:11 42.06071 12.17132 3012 ft 166 kts 162°
2026-05-05 16:12 42.05000 12.17657 2966 ft 159 kts 167°
2026-05-05 16:12 42.02911 12.18393 2855 ft 152 kts 157°
2026-05-05 16:13 42.00114 12.19562 2568 ft 160 kts 185°
2026-05-05 16:13 41.99082 12.19941 2549 ft 154 kts 150°
2026-05-05 16:13 41.98128 12.20506 2497 ft 148 kts 162°
2026-05-05 16:14 41.96184 12.21307 2416 ft 144 kts 163°
2026-05-05 16:14 41.94265 12.22109 2069 ft 142 kts 164°
2026-05-05 16:15 41.92433 12.22872 1695 ft 136 kts 163°
2026-05-05 16:15 41.90608 12.23637 1305 ft 137 kts 163°
2026-05-05 16:16 41.88786 12.24399 946 ft 139 kts 162°
2026-05-05 16:16 41.86894 12.25190 558 ft 145 kts 160°
2026-05-05 16:17 41.84960 12.26001 161 ft 144 kts 161°
2026-05-05 16:17 41.84020 12.26393 28 ft 134 kts 161°
2026-05-05 16:18 41.82631 12.26978 11 ft 83 kts 162°
2026-05-05 16:18 41.82113 12.27192 11 ft 73 kts 162°
2026-05-05 16:18 41.81525 12.27425 13 ft 26 kts 180°
2026-05-05 16:19 41.81398 12.27376 11 ft 8 kts 217°
2026-05-05 16:19 41.81390 12.27367 12 ft 0 kts 223°
2026-05-05 16:19 41.81353 12.27284 11 ft 11 kts 237°
2026-05-05 16:20 41.81222 12.27241 11 ft 10 kts 165°
2026-05-05 16:20 41.81088 12.27296 11 ft 10 kts 162°
2026-05-05 16:21 41.80961 12.27346 11 ft 9 kts 170°
2026-05-05 16:22 41.80777 12.27320 11 ft 9 kts 189°
2026-05-05 16:22 41.80674 12.27262 13 ft 8 kts 229°
2026-05-05 16:23 41.80630 12.27130 14 ft 8 kts 250°
2026-05-05 16:23 41.80607 12.27048 12 ft 12 kts 250°
2026-05-05 16:23 41.80532 12.26772 13 ft 16 kts 249°
2026-05-05 16:24 41.80493 12.26633 14 ft 16 kts 250°
2026-05-05 16:24 41.80456 12.26499 14 ft 15 kts 250°
2026-05-05 16:24 41.80376 12.26366 13 ft 8 kts 183°